Location: Poughquag
(41.6090°N, 73.6820°W)
Time: 18:15:33
(UTC-04:00)

ISS - Visible Passes

Search period start: 23 May 2018 00:00
Search period end: 02 June 2018 00:00
Orbit: 402 x 407 km, 51.6° (Epoch: 24 May)

Date Brightness Start Highest point End Pass type
(mag) Time Alt. Az. Time Alt. Az. Time Alt. Az.
23 May -0.6 00:51:10 10° NNW 00:53:07 15° N 00:55:04 10° NE visible
23 May -2.0 02:27:21 10° NW 02:30:21 32° NNE 02:33:20 10° E visible
23 May -3.2 04:03:51 10° WNW 04:06:50 33° SW 04:09:48 10° SSE visible
23 May -3.8 20:43:20 10° SW 20:46:35 63° SE 20:49:49 10° ENE visible
23 May -1.3 22:20:35 10° WNW 22:23:18 23° NNW 22:26:00 10° NE visible
23 May -0.5 23:58:47 10° NW 00:00:39 14° N 00:02:30 10° NE visible
24 May -1.3 01:35:19 10° NW 01:37:42 23° N 01:37:42 23° N visible
24 May -1.9 21:27:55 10° W 21:30:56 33° NNW 21:33:58 10° NE visible
24 May -0.6 23:06:11 10° NW 23:08:09 15° N 23:10:07 10° NNE visible
25 May -1.0 00:43:15 10° NNW 00:45:36 18° NNE 00:46:03 17° NNE visible
25 May -0.8 22:13:25 10° NW 22:15:40 17° NNW 22:17:55 10° NNE visible
25 May -0.7 23:51:04 10° NNW 23:53:07 15° N 23:55:03 10° NE visible
26 May -0.9 01:27:12 10° NW 01:27:40 13° NW 01:27:40 13° NW visible
26 May -1.1 21:20:37 10° WNW 21:23:13 21° NNW 21:25:48 10° NE visible
26 May -0.7 22:58:44 10° NNW 23:00:36 14° N 23:02:28 10° NE visible
27 May -1.2 00:35:06 10° NW 00:36:52 21° N 00:36:52 21° N visible
27 May -0.8 22:06:09 10° NW 22:08:04 14° N 22:09:58 10° NNE visible
27 May -1.3 23:43:01 10° NNW 23:45:28 19° NNE 23:46:08 18° NNE visible
28 May -0.9 21:13:23 10° NW 21:15:32 16° N 21:17:41 10° NNE visible
28 May -0.9 22:50:50 10° NNW 22:52:59 16° N 22:55:07 10° NE visible
29 May -1.2 00:26:55 10° NW 00:28:06 20° NW 00:28:06 20° NW visible
29 May -0.9 21:58:32 10° NNW 22:00:26 14° N 22:02:20 10° NE visible
29 May -2.0 23:34:47 10° NW 23:37:28 29° NNE 23:37:28 29° NNE visible
30 May -0.9 21:05:59 10° NW 21:07:52 14° N 21:09:44 10° NNE visible
30 May -1.5 22:42:39 10° NW 22:45:15 21° NNE 22:46:51 15° ENE visible
31 May -1.1 00:18:46 10° WNW 00:19:30 16° WNW 00:19:30 16° WNW visible
31 May -1.2 21:50:28 10° NNW 21:52:44 17° NNE 21:54:59 10° NE visible
31 May -2.5 23:26:31 10° NW 23:28:55 40° NNW 23:28:55 40° NNW visible
01 Jun -1.1 20:58:11 10° NNW 21:00:09 15° N 21:02:08 10° NE visible
01 Jun -2.4 22:34:20 10° NW 22:37:21 33° NNE 22:38:21 27° ENE visible
